Springfield, OH

10:24 AM EST on February 23, 2017 (GMT -0500)
Springfield-Beckley Municipal

Weather History for KSGH - August, 2013

Change the Weather History Date:

Thursday, August 29, 2013

  Actual Average (KFFO) Record (KFFO)
Temperature  
Mean Temperature 74 °F -  
Max Temperature 82 °F 80 °F 93 °F (2007)
Min Temperature 66 °F 58 °F 55 °F (1997)
Cooling Degree Days 9    
Growing Degree Days 24 (Base 50)    
Moisture  
Dew Point 69 °F    
Average Humidity 92    
Maximum Humidity 100    
Minimum Humidity 65    
Precipitation  
Precipitation 0.00 in - - ()
Sea Level Pressure  
Sea Level Pressure 30.04 in    
Wind  
Wind Speed 4 mph (SE)    
Max Wind Speed 9 mph    
Max Gust Speed -    
Visibility 3 miles    
Events Fog    
Averages and records for this station are not official NWS values.
T = Trace of Precipitation, MM = Missing Value Source: NWS Daily Summary

Daily Weather History Graph

Daily Weather History Graph

Search for Another Location

Airport or City:

Trip Planner

Search our weather history database for the weather conditions in past years. The results will help you decide how hot, cold, wet, or windy it might be!

Date:

Astronomy

Aug. 29, 2013 Rise Set
Actual Time 7:00 AM EDT 8:10 PM EDT
Civil Twilight 6:32 AM EDT 8:38 PM EDT
Nautical Twilight 5:59 AM EDT 9:11 PM EDT
Astronomical Twilight 5:24 AM EDT 9:46 PM EDT
Moon 12:51 AM EDT (8/29) 3:38 PM EDT (8/29)
Length of Visible Light 14h 05m
Length of Day
13h 10m
Last Quarter, 38% of the Moon is Illuminated
Aug 29
Last Quarter
Sep 5
New
Sep 12
First Quarter
Sep 19
Full
Sep 26
Last Quarter

Hourly Weather History & Observations

Time (EDT) Temp. Heat Index Dew Point Humidity Pressure Visibility Wind Dir Wind Speed Gust Speed Precip Events Conditions
12:56 AM 73.9 °F - 70.9 °F 90% 29.99 in 7.0 mi NE 9.2 mph - N/A   Scattered Clouds
1:56 AM 72.0 °F - 70.0 °F 93% 29.99 in 6.0 mi ENE 6.9 mph - N/A   Clear
2:56 AM 68.9 °F - 68.9 °F 100% 29.99 in 4.0 mi Calm Calm - N/A   Partly Cloudy
3:56 AM 68.0 °F - 68.0 °F 100% 29.99 in 3.0 mi SSE 3.5 mph - N/A   Clear
4:35 AM 66.2 °F - 66.2 °F 100% 30.02 in 2.5 mi Calm Calm - N/A   Clear
4:56 AM 66.9 °F - 66.9 °F 100% 30.00 in 2.5 mi Calm Calm - N/A   Clear
5:03 AM 66.2 °F - 66.2 °F 100% 30.03 in 3.0 mi Calm Calm - N/A   Clear
5:10 AM 68.0 °F - 68.0 °F 100% 30.03 in 2.5 mi South 3.5 mph - N/A   Partly Cloudy
5:23 AM 68.0 °F - 68.0 °F 100% 30.03 in 2.5 mi SSE 3.5 mph - N/A   Mostly Cloudy
5:31 AM 69.8 °F - 69.8 °F 100% 30.03 in 3.0 mi SE 4.6 mph - N/A   Mostly Cloudy
5:41 AM 69.8 °F - 68.0 °F 94% 30.03 in 2.5 mi Calm Calm - N/A   Scattered Clouds
5:56 AM 66.9 °F - 66.9 °F 100% 30.00 in 1.2 mi Calm Calm - N/A   Mostly Cloudy
6:03 AM 68.0 °F - 68.0 °F 100% 30.03 in 1.5 mi Calm Calm - N/A   Clear
6:21 AM 66.2 °F - 66.2 °F 100% 30.03 in 1.0 mi Calm Calm - N/A   Clear
6:27 AM 66.2 °F - 66.2 °F 100% 30.03 in 0.8 mi South 3.5 mph - N/A   Mist
6:33 AM 68.0 °F - 68.0 °F 100% 30.03 in 0.5 mi SSW 4.6 mph - N/A Fog Fog
6:42 AM 68.0 °F - 68.0 °F 100% 30.04 in 0.2 mi SSW 3.5 mph - N/A Fog Fog
6:56 AM 68.9 °F - 68.9 °F 100% 30.02 in 0.2 mi SSW 4.6 mph - N/A Fog Fog
7:04 AM 68.0 °F - 68.0 °F 100% 30.05 in 0.2 mi South 3.5 mph - N/A Fog Fog
7:31 AM 69.8 °F - 69.8 °F 100% 30.06 in 0.5 mi ESE 5.8 mph - N/A Fog Fog
7:44 AM 69.8 °F - 69.8 °F 100% 30.06 in 0.2 mi SE 4.6 mph - N/A Fog Fog
7:56 AM 68.9 °F - 68.9 °F 100% 30.04 in 0.2 mi SE 4.6 mph - N/A Fog Fog
8:05 AM 69.8 °F - 69.8 °F 100% 30.07 in 0.5 mi Variable 6.9 mph - N/A Fog Fog
8:14 AM 69.8 °F - 69.8 °F 100% 30.07 in 0.8 mi ENE 9.2 mph - N/A   Overcast
8:19 AM 69.8 °F - 69.8 °F 100% 30.07 in 1.2 mi ENE 9.2 mph - N/A   Overcast
8:27 AM 69.8 °F - 69.8 °F 100% 30.07 in 1.5 mi Variable 6.9 mph - N/A   Overcast
8:37 AM 69.8 °F - 69.8 °F 100% 30.08 in 2.0 mi Variable 5.8 mph - N/A   Overcast
8:56 AM 70.9 °F - 70.9 °F 100% 30.06 in 2.5 mi Variable 5.8 mph - N/A   Overcast
9:12 AM 71.6 °F - 69.8 °F 94% 30.08 in 3.0 mi NE 9.2 mph - N/A   Overcast
9:56 AM 72.0 °F - 70.0 °F 93% 30.06 in 3.0 mi NE 8.1 mph - N/A   Overcast
10:35 AM 73.4 °F - 69.8 °F 88% 30.09 in 5.0 mi ENE 9.2 mph - N/A   Overcast
10:56 AM 73.9 °F - 68.9 °F 84% 30.07 in 5.0 mi East 5.8 mph - N/A   Haze
11:16 AM 75.2 °F - 69.8 °F 83% 30.10 in 5.0 mi Variable 6.9 mph - N/A   Haze
11:56 AM 75.9 °F - 70.0 °F 82% 30.08 in 5.0 mi Variable 6.9 mph - N/A   Haze
12:56 PM 75.9 °F - 70.0 °F 82% 30.08 in 5.0 mi Variable 6.9 mph - N/A   Haze
1:56 PM 77.9 °F - 70.0 °F 76% 30.07 in 6.0 mi SSE 3.5 mph - N/A   Haze
2:56 PM 79.9 °F - 70.0 °F 72% 30.06 in 6.0 mi Variable 4.6 mph - N/A   Haze
3:56 PM 82.9 °F 87.0 °F 70.0 °F 65% 30.04 in 6.0 mi Calm Calm - N/A   Haze
4:05 PM 82.4 °F 87.2 °F 71.6 °F 70% 30.06 in 7.0 mi South 3.5 mph - N/A   Scattered Clouds
4:56 PM 81.9 °F 85.2 °F 68.9 °F 65% 30.04 in 7.0 mi SSE 3.5 mph - N/A   Scattered Clouds
5:56 PM 81.9 °F 85.6 °F 70.0 °F 67% 30.03 in 7.0 mi South 3.5 mph - N/A   Partly Cloudy
6:56 PM 81.0 °F 84.7 °F 70.9 °F 71% 30.03 in 7.0 mi Calm Calm - N/A   Mostly Cloudy
7:56 PM 77.0 °F - 72.0 °F 84% 30.02 in 6.0 mi Calm Calm - N/A   Haze
8:56 PM 72.0 °F - 70.0 °F 93% 30.03 in 7.0 mi Calm Calm - N/A   Clear
9:56 PM 70.0 °F - 68.9 °F 96% 30.05 in 5.0 mi Calm Calm - N/A   Clear
10:56 PM 68.0 °F - 68.0 °F 100% 30.04 in 5.0 mi Calm Calm - N/A   Clear
11:56 PM 66.9 °F - 66.9 °F 100% 30.03 in 4.0 mi Calm Calm - N/A   Clear